Skip Page Navigation
NASA JPL Caltech
NASA Logo - Jet Propulsion Laboratory + View the NASA Portal
+ Center for Near-Earth Object Studies
JPL Home Earth Solar System Stars & Galaxies Technology
JPL Solar System Dynamics
BODIES ORBITS EPHEMERIDES TOOLS PHYSICAL DATA DISCOVERY FAQ SITE MAP
IMPORTANT: The SSD Announcement email list is now available. Major changes are coming in the near future, including possible hostname and/or URL changes. To be notified of such changes, subscribe to this email list.

Please visit this page for more details.


JPL Small-Body Database Browser
Search: [ help ]  
34866 (2001 TN119)
Classification: Main-belt Asteroid          SPK-ID: 2034866
Ephemeris | Orbit Diagram | Orbital Elements | Mission Design | Physical Parameters | Discovery Circumstances ]

[ show orbit diagram ]
Orbital Elements at Epoch 2458600.5 (2019-Apr-27.0) TDB
Reference: JPL 20 (heliocentric ecliptic J2000)
 Element Value Uncertainty (1-sigma)   Units 
e .1317975149631516 6.2079e-08  
a 2.60210682465237 1.6723e-08 au
q 2.25915561149453 1.6687e-07 au
i 12.95580449855045 6.3906e-06 deg
node 297.0617177056201 2.1028e-05 deg
peri 192.8704647392701 2.9146e-05 deg
M 333.338466359289 2.3777e-05 deg
tp 2458714.045188664889
(2019-Aug-18.54518866)
0.00010198 TDB
period 1533.155161672457
4.20
1.478e-05
4.047e-08
d
yr
n .2348098933491445 2.2636e-09 deg/d
Q 2.94505803781021 1.8927e-08 au
  Orbit Determination Parameters
   # obs. used (total)      895  
   data-arc span      14445 days (39.55 yr)  
   first obs. used      1979-07-24  
   last obs. used      2019-02-09  
   planetary ephem.      DE431  
   SB-pert. ephem.      SB431-N16  
   condition code      0  
   norm. resid. RMS      .54776  
   source      ORB  
   producer      Otto Matic  
   solution date      2019-Jul-13 01:44:10  

Additional Information
 Earth MOID = 1.27645 au 
 Jupiter MOID = 2.14477 au 
 T_jup = 3.366 
[ show covariance matrix ]

Ephemeris | Orbit Diagram | Orbital Elements | Mission Design | Physical Parameters | Discovery Circumstances ]

Physical Parameter Table
Parameter Symbol Value Units Sigma Reference Notes
absolute magnitude H 14.3   n/a MPO385035  

34866 (2001 TN119)          Discovered 2001-Oct-15 by LINEAR at Socorro
Reference: 20020128/Numbers.arcLast Updated: 2004-04-19

Alternate Designations
 2001 TN119 = 1979 OY7 = 1990 AG1 
Ephemeris | Orbit Diagram | Orbital Elements | Mission Design | Physical Parameters | Discovery Circumstances ]
ABOUT SSD CREDITS/AWARDS PRIVACY/COPYRIGHT GLOSSARY LINKS
FirstGov 2019-Oct-16 23:31 UT
(server date/time)  
NASA Home Page
Site Manager:   Ryan S. Park
Webmaster  Alan B. Chamberlin